OpenBCM V1.13 (Linux)

Packet Radio Mailbox

DB0FHN

[JN59NK Nuernberg]

 Login: GUEST





  
CX2SA  > KEPS     28.08.04 05:07l 165 Lines 7765 Bytes #999 (0) @ AMSAT
BID : ORB04240.N
Read: GUEST DL7NDR
Subj: 2Line Orbital Elements 04240.AMSAT
Path: DB0FHN<DB0FOR<DB0SIF<DB0AIS<DB0ZDF<DB0GE<F6KFT<F6KMO<ON0BEL<ZL2TZE<
      ED1ZAC<CX2SA
Sent: 040828/0301Z @:CX2SA.LAV.URY.SA #:6113 [Minas] FBB7.00e $:ORB04240.N
From: CX2SA@CX2SA.LAV.URY.SA
To  : KEPS@AMSAT


HR AMSAT ORBITAL ELEMENTS FOR AMATEUR SATELLITES IN NASA FORMAT
FROM WA5QGD FORT WORTH,TX August 27, 2004
SEND SUBSCRIBE/UNSUBSCRIBE TO majordomo@amsat.org ONLY
BID: ORB04240.N

DECODE 2-LINE ELSETS WITH THE FOLLOWING KEY:
1 AAAAAU 00  0  0 BBBBB.BBBBBBBB  .CCCCCCCC  00000-0  00000-0 0  DDDZ
2 AAAAA EEE.EEEE FFF.FFFF GGGGGGG HHH.HHHH III.IIII JJ.JJJJJJJJKKKKKZ
KEY: A-CATALOGNUM B-EPOCHTIME C-DECAY D-ELSETNUM E-INCLINATION F-RAAN
G-ECCENTRICITY H-ARGPERIGEE I-MNANOM J-MNMOTION K-ORBITNUM Z-CHECKSUM

TO ALL RADIO AMATEURS BT

AO-07
1 07530U 74089B   04240.54412606 -.00000029  00000-0  10000-3 0  3137
2 07530 101.6765 286.1522 0012296  82.9739 277.2735 12.53568853362850
AO-10
1 14129U 83058B   04239.06579063 -.00000339  00000-0  10000-3 0 00985
2 14129 026.5778 074.8564 6026252 118.7329 313.9663 02.05870986159452
UO-11
1 14781U 84021B   04240.75109700  .00000569  00000-0  84399-4 0  5640
2 14781  98.1797 226.7978 0008584 215.7532 144.3087 14.78981714 98425
RS-10/11
1 18129U 87054A   04239.92333133  .00000040  00000-0  27293-4 0 04930
2 18129 082.9237 095.8108 0012700 118.6585 241.5849 13.72743446860704
FO-20
1 20480U 90013C   04239.69919136 -.00000044  00000-0 -27196-4 0  7019
2 20480  99.0428 103.8310 0540266 187.0509 172.2759 12.83341139681729
RS-12/13
1 21089U 91007A   04239.77597384  .00000058  00000-0  45070-4 0 07266
2 21089 082.9234 129.3954 0028865 176.6572 183.4778 13.74440842680050
RS-15
1 23439U 94085A   04239.50463509 -.00000042  00000-0  46572-7 0 08118
2 23439 064.8140 224.1135 0154498 008.6666 351.6872 11.27549696398166
FO-29
1 24278U 96046B   04240.83218718 -.00000022  00000-0  15338-4 0  7904
2 24278  98.5857 323.4140 0349947 216.0258 141.6834 13.52902035396526
SO-33
1 25509U 98061B   04239.36711519  .00000001  00000-0 -10961-4 0  1823
2 25509  31.4277 258.8639 0355693 109.5585 254.3796 14.27860608304658
AO-40
1 26609U 00072B   04240.31554315 -.00000241  00000-0  10000-3 0  4288
2 26609   9.8777 345.5324 7973183 314.6800   3.7089  1.25586214 17569
UO-14
1 20437U 90005B   04240.67324023 -.00000014  00000-0  10182-4 0  5782
2 20437  98.2085 260.6548 0010749 353.7991   6.3052 14.31367638762046
AO-16
1 20439U 90005D   04240.66143515  .00000016  00000-0  21280-4 0  2653
2 20439  98.2413 275.1928 0011236   1.7552 358.3684 14.31625363762099
WO-18
1 20441U 90005F   04240.12231993  .00000032  00000-0  27332-4 0  4503
2 20441  98.2561 278.6986 0012060   3.2805 356.8442 14.31701120762071
LO-19
1 20442U 90005G   04239.68645932  .00000032  00000-0  27254-4 0  2146
2 20442  98.2678 282.3173 0012499   2.4546 357.6697 14.31872045762076
UO-22
1 21575U 91050B   04240.17038524  .00000152  00000-0  62278-4 0  1882
2 21575  98.1985 211.3162 0006393 253.9792 106.0695 14.39409180688206
KO-23
1 22077U 92052B   04240.89710481 -.00000037  00000-0  10000-3 0  2880
2 22077  66.0865  40.6713 0007880 325.4765  34.5742 12.86425014565865
AO-27
1 22825U 93061C   04240.83732084 -.00000028  00000-0  51230-5 0  9282
2 22825  98.2441 246.0566 0009405  56.5968 303.6117 14.29081131569321
IO-26
1 22826U 93061D   04239.93783578  .00000036  00000-0  30020-4 0 06150
2 22826 098.2423 246.4845 0010067 054.4080 305.8039 14.29317734569254
KO-25
1 22828U 93061F   04239.93016254 -.00000001  00000-0  15287-4 0 08638
2 22828 098.2358 246.7159 0010628 035.7699 324.4198 14.29638207537478
TO-31
1 25396U 98043C   04239.92966229 -.00000043  00000-0  00000-0 0 01060
2 25396 098.5701 309.4316 0002089 342.0972 018.0134 14.23631223318544
GO-32
1 25397U 98043D   04240.45511596  .00000110  00000-0  67599-4 0  5477
2 25397  98.5623 307.9973 0000939  30.1238 330.0019 14.23049864318556
UO-36
1 25693U 99021A   04240.97517222 -.00000104  00000-0  57626-5 0  3958
2 25693  64.5590 104.1094 0047327 250.0485 109.5524 14.78373889288475
SO-41
1 26545U 00057A   04240.24129026  .00000138  00000-0  37125-4 0  8612
2 26545  64.5573 122.7885 0016017   2.1772 357.9403 14.79838700211429
MO-46
1 26548U 00057D   04240.83338468  .00000109  00000-0  31703-4 0  9617
2 26548  64.5565 107.2367 0017113 340.4792  19.5656 14.82382488211796
SO-42
1 26549U 00057E   04240.88887227  .00000254  00000-0  53547-4 0  9470
2 26549  64.5520 127.8319 0016515  20.4104 339.7655 14.78733995211389
NO-44
1 26931U 01043C   04240.78420693  .00000124  00000-0  80942-4 0  8429
2 26931  67.0523 263.4228 0006552 271.1535  88.8810 14.29317360151832
AO-49
1 27605U 02058A   04239.68459620  .00000048  00000-0  29202-4 0  5204
2 27605  64.5596 310.6607 0081343 297.6383  61.6491 14.71915586 90505
SO-50
1 27607U 02058C   04240.44974289  .00000121  00000-0  41152-4 0  5025
2 27607  64.5615 312.3240 0082557 296.5387  62.7231 14.70702702 90531
AO-51
1 28375U 04025K   04240.71078172  .00000018  00000-0  18419-4 0   525
2 28375  98.2548 308.2557 0085048  37.5573 323.1515 14.40384430  8366
NOAA-10
1 16969U 86073A   04240.44674059  .00000095  00000-0  57123-4 0  3691
2 16969  98.7592 239.5973 0011415 267.3842  92.6037 14.27209549933190
NOAA-11
1 19531U 88089A   04240.43787284  .00000145  00000-0  98145-4 0  2270
2 19531  98.8651 323.8664 0012437  65.8987 294.3500 14.14725952821396
NOAA-12
1 21263U 91032A   04240.41910904  .00000285  00000-0  13939-3 0  7123
2 21263  98.6752 227.4712 0012338 199.5363 160.5350 14.25408304690399
MET-3/5
1 21655U 91056A   04240.85675324  .00000051  00000-0  10000-3 0  6447
2 21655  82.5584   5.8791 0012049 246.9936 112.9917 13.16995725626707
MET-2/21
1 22782U 93055A   04240.30165286 -.00000065  00000-0 -72500-4 0  9894
2 22782  82.5497 134.1244 0021365 225.0414 134.9021 13.83567424554931
OKEAN-4
1 23317U 94066A   04240.85566981  .00000551  00000-0  66342-4 0  4316
2 23317  82.5420 170.8304 0023877  25.6020 334.6370 14.81864252532461
NOAA-14
1 23455U 94089A   04240.39336143 -.00000122  00000-0 -39957-4 0  2572
2 23455  99.1369 277.2860 0010258 107.4284 252.8011 14.13480615497992
SICH-1
1 23657U 95046A   04240.20840653  .00000422  00000-0  51358-4 0  2352
2 23657  82.5314 312.2483 0024842  12.6481 347.5344 14.80902466484447
NOAA-15
1 25338U 98030A   04240.53328332  .00000060  00000-0  44096-4 0  7104
2 25338  98.5200 251.7452 0011230 132.2070 228.0068 14.24446362326941
RESURS
1 25394U 98043A   04240.23391199  .00000032  00000-0  32488-4 0  8863
2 25394  98.5774 311.2526 0000825 335.4815  24.6324 14.24019816318615
FENGYUN1
1 25730U 99025A   04240.72570701  .00000130  00000-0  93974-4 0  2185
2 25730  98.6078 248.3106 0013818 215.1582 144.8680 14.11777382273101
OKEAN-0
1 25860U 99039A   04239.93121057  .00000167  00000-0  33245-4 0 02467
2 25860 097.7931 272.2561 0002196 078.5654 281.5801 14.73105176274684
NOAA-16
1 26536U 00055A   04240.47107571 -.00000024  00000-0  11589-4 0    02
2 26536  98.9680 191.9306 0010653 171.3367 188.7987 14.12145552202604
NOAA-17
1 27453U 02032A   04240.43473319  .00000173  00000-0  95220-4 0   255
2 27453  98.6959 311.9123 0012050 182.9431 177.1658 14.23563080113041
HUBBLE
1 20580U 90037B   04240.54345047  .00001009  00000-0  67589-4 0  1403
2 20580  28.4701  21.4981 0004797  31.4983 328.5881 14.99276976586126
UARS
1 21701U 91063B   04240.35781797  .00000061  00000-0  23129-4 0  2549
2 21701  56.9816 300.9595 0006495 112.4903 247.6744 15.03604456709298
PO-34
1 25520U 98064B   04240.90260790  .00001049  00000-0  43679-4 0  9991
2 25520  28.4597 112.2778 0005688 270.7329  89.2614 15.15696560322030
ISS
1 25544U 98067A   04240.93372685  .00017521  00000-0  15286-3 0  5473
2 25544  51.6374 319.4542 0005582  85.4055 259.1881 15.69065041329581
OO-38
1 26063U 00004C   04240.86902317  .00000077  00000-0  46785-4 0  1469
2 26063 100.2199  40.9231 0037011 159.9352 200.3304 14.35664152240203
NO-45
1 26932U 01043D   04240.42587375  .00000238  00000-0  12537-3 0  8398
2 26932  67.0568 263.9909 0004708 282.0833  77.9747 14.29439304151815


Read previous mail | Read next mail


 14.06.2026 22:06:32lGo back Go up